www.pogodaiklimat.ru
ПОГОДА в Фредерике
Время
и дата
11:47 14.07
12:47 14.07
13:47 14.07
14:47 14.07
15:47 14.07
16:47 14.07
17:47 14.07
18:47 14.07
19:47 14.07
21:15 14.07
21:35 14.07
21:55 14.07
22:15 14.07
22:35 14.07
22:55 14.07
23:15 14.07
23:35 14.07
23:55 14.07
00:15 15.07
00:35 15.07
00:55 15.07
01:15 15.07
01:35 15.07
01:55 15.07
02:15 15.07
02:35 15.07
02:55 15.07
03:15 15.07
03:35 15.07
03:55 15.07
04:15 15.07
04:35 15.07
04:55 15.07
05:47 15.07
06:47 15.07
07:47 15.07
08:47 15.07
09:47 15.07
10:47 15.07
11:47 15.07
12:47 15.07
13:47 15.07
14:47 15.07
15:47 15.07
16:47 15.07
17:47 15.07
18:47 15.07
19:47 15.07
Ветер
(напр.,м/с)
Видим. Явления Облачность Т
(С)
Тd
(С)
f
(%)
Тe
(С)
Тes
(С)
Комфортность P
(гПа)
Po
(гПа)
Тmin
(С)
Tmax
(С)
R
(мм)
R24
(мм)
S
(см)
штиль 0 16 км 8/5 1800 m
[Ac]
+34.0 +18.0 39 +38 +46 очень
душно
1005.8
З 3 16 км ясно +36.0 +26.0 57 +52 +69 опасность
перегрева
1005.1
З 3 16 км ясно +37.0 +14.0 25 +37 +54 опасность
солнечного
удара
1004.4
З 4 16 км ясно +37.0 +14.0 25 +37 +49 очень
жарко
1003.4
штиль 0 16 км ясно +37.0 +15.0 27 +38 +56 опасность
солнечного
удара
1003.1
штиль 0 16 км ясно +37.0 +16.0 29 +39 +50 очень
душно
1002.8
Ю 3 16 км ясно +36.0 +17.0 33 +39 +43 очень
душно
1002.8
Ю 3 16 км ясно +33.0 +19.0 44 +38 +40 очень
душно
1003.1
Ю 3 16 км ясно +31.0 +19.0 49 +36 +36 очень
душно
1002.8
штиль 0 16 км ясно +28.0 +20.0 62 +34 +34 очень
душно
1002.8
штиль 0 16 км 5/0 2850 m
[Ac]
+28.0 +21.0 66 +35 +35 очень
душно
1002.8
штиль 0 16 км 8/0 2850 m
[Ac]
+28.0 +21.0 66 +35 +35 очень
душно
1002.8
штиль 0 11 км 10/0 2850 m
[Ac]
+27.0 +22.0 74 +35 +35 очень
душно
1002.8
Ю 2 16 км 8/0 2850 m
[Ac]
+27.0 +22.0 74 +35 +35 очень
душно
1002.8
штиль 0 16 км 5/0 2850 m
[Ac]
+26.0 +21.0 74 +33 +33 очень
душно
1002.4
ЮВ 2 16 км ясно +26.0 +21.0 74 +33 +33 очень
душно
1002.4
штиль 0 16 км ясно +26.0 +21.0 74 +33 +33 очень
душно
1002.4
штиль 0 16 км ясно +25.0 +21.0 78 +31 +31 очень
душно
1002.4
штиль 0 16 км ясно +25.0 +25.0 100 +36 +36 очень
душно
1002.4
ЮВ 2 16 км ясно 1002.4
ЮВ 2 16 км 5/0 2700 m
[Ac]
+25.0 +25.0 100 +36 +36 очень
душно
1002.1
ЮВ 2 16 км ясно +25.0 +25.0 100 +36 +36 очень
душно
1002.1
штиль 0 16 км ясно +25.0 +25.0 100 +36 +36 очень
душно
1001.7
штиль 0 16 км ясно 1001.7
штиль 0 16 км 5/0 2700 m
[Ac]
1001.7
штиль 0 16 км 5/0 2700 m
[Ac]
1002.1
Ю 2 16 км 5/0 2700 m
[Ac]
1002.1
штиль 0 16 км ясно 1002.4
штиль 0 16 км ясно 1002.4
Ю 2 16 км ясно 1002.4
штиль 0 16 км ясно 1002.8
СЗ 3 16 км 5/0 3600 m
[Ac]
+25.0 +19.0 69 +30 +30 душно 1002.8
СЗ 4 16 км 10/0 3600 m
[Ac]
+27.0 +18.0 58 +32 +32 очень
душно
1003.1
штиль 0 16 км 8/0 3300 m
[Ac]
+28.0 +18.0 55 +33 +33 очень
душно
1003.4
штиль 0 16 км ясно +28.0 +19.0 58 +33 +35 очень
душно
1003.8
штиль 0 16 км ясно +29.0 +19.0 55 +34 +39 очень
душно
1004.1
З 4 16 км ясно +32.0 +19.0 46 +37 +42 очень
душно
1003.8
З 5 16 км ясно +33.0 +19.0 44 +38 +44 очень
душно
1003.4
З 4 16 км ясно +34.0 +19.0 41 +39 +50 очень
душно
1002.8
З 3 16 км ясно +35.0 +19.0 39 +40 +55 опасность
солнечного
удара
1002.4
З 4 16 км ясно +36.0 +19.0 37 +41 +54 опасность
перегрева
1001.4
З 5
{8}
16 км ясно +38.0 +17.0 29 +41 +51 опасность
перегрева
1000.7
ЮЗ 4 16 км ясно +38.0 +18.0 31 +41 +53 опасность
перегрева
999.7
ЮЗ 5
{8}
16 км 8/0 2700 m
[Ac]
+33.0 +19.0 44 +38 +41 очень
душно
999.4
ЮЗ 5
{8}
16 км ясно +31.0 +19.0 49 +36 +41 очень
душно
999.7
Ю 3 16 км ясно +31.0 +19.0 49 +36 +40 очень
душно
999.4
ЮЗ 3 16 км ясно +29.0 +21.0 62 +36 +38 очень
душно
999.4
ЮЗ 3 16 км ясно +28.0 +21.0 66 +35 +35 очень
душно
999.7
Местоположение метеостанции Frederick Municipal Airport: широта 39.4200 долгота -77.3700 высота над уровнем моря 92 м.
В архиве по умолчанию представлена погода в Фредерике за последние 1-2 суток. Обновление информации о фактической погоде в базе происходит ежечасно! Архивные данные за месяц целиком и за предыдущие месяцы Вы можете получить, выбрав интересующий диапазон дат из раскрывающегося списка и нажав кнопку "Ввод!".
Внимание! Архив погоды МЕТАР в базе сайта по станциям, не включенным в климатический монитор, хранится не более 60 дней. Нет смысла пытаться выбрать более раннюю дату.
*Определитесь, кто Вы:
Внимание! Время в таблицах - местное (без учета летнего времени). Для получения всемирного времени необходимо вычесть поправку, которая равна -5 ч.
Смотрите также архив погоды в соседних городах и на ближайших метеорологических станциях:
Партнеры нашего сайта:      
Пояснения к столбцам:
  • Ветер - указаны скорость ветра в м/с - средняя за 10 мин, порывы в срок и между сроками (в фигурных скобках) и направление, откуда дует ветер: С - северный,
  • СВ - северо-восточный, В - восточный, ЮВ - юго-восточный, Ю - южный, ЮЗ - юго-западный, З - западный, СЗ - северо-западный.
  • Видимость - горизонтальная дальность видимости в метрах или километрах. При видимости от 1 до 10 км при отсутствии осадков обычно наблюдается дымка, при ухудшении видимости до 1 км и менее - туман. В сухую погоду видимость может ухудшаться дымом, пылью или мглою.
  • Явления - указаны атмосферные явления, наблюдавшиеся в срок или в последний час перед сроком; фигурными скобками обозначены явления, наблюдавшиеся между сроками (за 1-3 часа до срока); квадратными скобками обозначены град или гололедные отложения с указанием их диаметра в мм.
  • Облачность - указаны через наклонную черту общая и нижняя облачность в баллах и высота нижней границы облаков в метрах; квадратными скобками обозначены формы облаков: Ci - перистые, Cs - перисто-слоистые, Cc - перисто-кучевые, Ac - высококучевые, As - высокослоистые, Sc - слоисто-кучевые, Ns - слоисто-дождевые, Cu - кучевые, Cb - кучево-дождевые. Подробнее классификацию облаков см. в Атласе облаков (PDF).
  • T - Температура воздуха - температура, измеренная на высоте 2 м над землей.
  • Td - Температура точки росы - температура, при понижении до которой содержащийся в воздухе водяной пар достигнет насыщения.
  • f - Относительная влажность воздуха - влажноcть воздуха, измеренная на высоте 2 м над землей.
  • Te - Эффективная температура - температура, которую ощущает одетый по сезону человек в тени. Характеристика душности погоды. При расчете учитывается влияние влажности воздуха и скорости ветра на теплоощущения человека.
  • Tes - Эффективная температура на солнце - температура, которую ощущает человек, с поправкой на солнечный нагрев. Характеристика знойности погоды. Зависит от высоты солнца над горизонтом, облачности и скорости ветра. Ночью, в пасмурную погоду, а также при ветре 12 м/с и более поправка равна нулю.
  • P - Атмосферное давление - приведенное к уровню моря атмосферное давление.
  • Po - Атмосферное давление - измеренное на уровне метеостанции атмосферное давление.
  • Tmin - Минимальная температура - минимум температуры воздуха на высоте 2 м над землей.
  • Tmax - Максимальная температура - максимум температуры воздуха на высоте 2 м над землей.
  • R - Количество осадков - Количество выпавших осадков за период времени, мм. При наведении курсора мыши на число - период времени, за который выпало указанное количество осадков.
  • R24 - Количество осадков - Количество выпавших осадков за 24 часа, мм.
  • S - Снежный покров - Высота снежного покрова, см. При наведении курсора мыши на число - состояние снежного покрова и степень покрытия местности в баллах.